Weather in Bondarka

Russia / Tomsk District     59°02′06″N   80°44′16″E
temp.,
°C
wind,
m/s
gust,
m/s
humid.,
%
clouds,
%
prec.,
mm/h
press.,
hPa
HPBL,
m
6 may, thu
thu601:00+11sw237885 0.0 100750
04:00+10ssw377845 0.0 1006120
07:00+10s39705 0.0 1005183
10:00+16s594591 0.0 1003507
13:00+21s6103495 0.0 10001189
16:00+23s61133100 0.0 9981577
19:00+22s613374 0.0 9961828
22:00+13wnw61371100 0.4 1000922
7 may, fri
fri701:00+10w39680 0.4 1002311
04:00+8w410755 0.0 1004392
07:00+7wsw48780 0.0 1005574
10:00+11w58547 0.0 10061486
13:00+11w695190 0.1 10061816
16:00+11w6104697 0.3 10082129
19:00+11wnw5114373 0.3 10102255
22:00+8w395794 0.0 1011271
8 may, sat
sat801:00+6wsw4136675 0.0 1012509
04:00+6wsw51365100 0.0 1011570
07:00+5wnw3117792 0.0 1013894
10:00+7wnw6115681 0.0 10141281
13:00+7nw61061100 0.0 10151324
16:00+8nnw61157100 0.0 10171483
19:00+8nnw6105745 0.0 10191261
22:00+4nnw26705 0.0 1020139
9 may, sun
sun901:00+2nnw22804 0.0 102132
04:00+1nw1187100 0.0 102212
07:00+2n118081 0.0 102363
10:00+8ne11565 0.0 1024647
13:00+11ne224482 0.0 10241123
16:00+13nne223915 0.0 10231295
19:00+12n2343100 0.0 10231213
22:00+10nnw235698 0.0 102448
10 may, mon
mon1001:00+8n246951 0.0 102490
04:00+6e0176100 0.0 102311
07:00+6s127691 0.0 102383
10:00+11se235490 0.0 1023743
13:00+12e324991 0.1 10221120
16:00+14ene2339100 0.0 10202255
19:00+12ne344890 0.1 10201558
22:00+8ne22635 0.0 102032